Palos Park, Illinois, United States (60464)
Lat: 41.67N, Lon: 87.83W
Wx Zone: ILZ014
Local Info
Past Weather Observations for Friday, July 18, 2014

NOTE: This archive is for the closest National Weather Service station to Palos Park. Information may differ from the station used for current weather conditions.

Click here for Long-term Archive

Time Weather Temperature Dewpoint Humidity Pressure Winds Precip Visibility
23:51
Clear
68°F / 20°C 55°F / 13°C 64% 30.09 in
(1019 mb)
Calm - 10SM
22:51
Clear
72°F / 22°C 55°F / 13°C 57% 30.09 in
(1019 mb)
Calm - 10SM
21:51
Clear
72°F / 22°C 54°F / 12°C 53% 30.09 in
(1019 mb)
SSE 4.6 mph
(SSE 7 kph)
- 10SM
20:51
Partly Cloudy
73°F / 23°C 54°F / 12°C 50% 30.12 in
(1020 mb)
SE 4.6 mph
(SE 7 kph)
- 10SM
19:51
Partly Cloudy
75°F / 24°C 52°F / 11°C 44% 30.09 in
(1019 mb)
S 4.6 mph
(S 7 kph)
- 10SM
18:51
Partly Cloudy
75°F / 24°C 48°F / 9°C 39% 30.12 in
(1020 mb)
S 8.1 mph
(S 13 kph)
- 10SM
17:51
Partly Cloudy
77°F / 25°C 52°F / 11°C 42% 30.09 in
(1019 mb)
SE 12.7 mph
(SE 20 kph)
- 10SM
16:51
Partly Cloudy
79°F / 26°C 54°F / 12°C 42% 30.09 in
(1019 mb)
SE 13.8 mph
(SE 22 kph)
- 10SM
15:51
Partly Cloudy
81°F / 27°C 54°F / 12°C 39% 30.09 in
(1019 mb)
SE 12.7 mph
(SE 20 kph)
- 10SM
14:51
Mostly Cloudy
79°F / 26°C 55°F / 13°C 45% 30.12 in
(1020 mb)
SE 10.4 mph
(SE 17 kph)
- 10SM
13:51
Mostly Cloudy
79°F / 26°C 55°F / 13°C 45% 30.12 in
(1020 mb)
Variable 4.6 mph
(Variable 7 kph)
- 10SM
12:51
Mostly Cloudy
79°F / 26°C 55°F / 13°C 45% 30.15 in
(1021 mb)
E 8.1 mph
(E 13 kph)
- 10SM
11:51
Mostly Cloudy
79°F / 26°C 55°F / 13°C 45% 30.15 in
(1021 mb)
SSE 4.6 mph
(SSE 7 kph)
- 10SM
10:51
Mostly Cloudy
77°F / 25°C 55°F / 13°C 47% 30.15 in
(1021 mb)
SSE 5.8 mph
(SSE 9 kph)
- 10SM
09:51
Mostly Cloudy
75°F / 24°C 57°F / 14°C 54% 30.18 in
(1022 mb)
Variable 6.9 mph
(Variable 11 kph)
- 10SM
08:51
Mostly Cloudy
75°F / 24°C 57°F / 14°C 54% 30.18 in
(1022 mb)
S 5.8 mph
(S 9 kph)
- 10SM
07:51
Mostly Cloudy
72°F / 22°C 57°F / 14°C 61% 30.18 in
(1022 mb)
SW 5.8 mph
(SW 9 kph)
- 10SM
06:51
Mostly Cloudy
68°F / 20°C 55°F / 13°C 64% 30.18 in
(1022 mb)
SSE 6.9 mph
(SSE 11 kph)
- 10SM
05:51
Mostly Cloudy
64°F / 18°C 55°F / 13°C 73% 30.18 in
(1022 mb)
S 6.9 mph
(S 11 kph)
- 10SM
04:51
Mostly Cloudy
64°F / 18°C 55°F / 13°C 73% 30.15 in
(1021 mb)
S 3.5 mph
(S 6 kph)
- 10SM
03:51
Partly Cloudy
64°F / 18°C 57°F / 14°C 78% 30.15 in
(1021 mb)
S 4.6 mph
(S 7 kph)
- 10SM
02:51
Partly Cloudy
64°F / 18°C 57°F / 14°C 78% 30.15 in
(1021 mb)
S 4.6 mph
(S 7 kph)
- 10SM
01:51
Partly Cloudy
66°F / 19°C 57°F / 14°C 73% 30.12 in
(1020 mb)
S 3.5 mph
(S 6 kph)
- 10SM
00:51
Clear
66°F / 19°C 57°F / 14°C 73% 30.12 in
(1020 mb)
S 5.8 mph
(S 9 kph)
- 10SM
Time Weather Temperature Dewpoint Humidity Pressure Winds Precip Visibility


Weather for websites

WeatherForYou.com, LLC is not responsible for any damages or problems caused by this service. Current weather conditions are obtained from the closest station including government and personal stations which may have varying degrees of accuracy. Weather forecasts are derived from the NOAA NDFD. Like all things, this site belongs to Jesus Christ... He just trusts me to maintain it. If you have any questions or comments email webmaster@weatherforyou.com

Copyright © 2014, WeatherForYou.com LLC. All rights reserved.